Other Public Products
Issued by NWS Grand Forks, ND

Home | Current Version | Previous Version | Text Only | Print | Product List | Glossary On
Versions: 1 2 3 4 5 6 7 8 9 10 11 12 13 14 15 16 17 18 19 20 21 22 23 24 25 26 27 28 29 30 31 32 33 34 35 36 37 38 39 40 41 42 43 44 45 46 47 48 49 50
000
FPUS83 KFGF 291210
OPUFGF
PRAIRIE TO PINES WEATHER ROUNDUP
NATIONAL WEATHER SERVICE EASTERN NORTH DAKOTA/GRAND FORKS ND
700 AM CDT SAT APR 29 2017

 **SATELLITE DATA USED TO AUGMENT SKY COVER AT AUTOMATED STATIONS**
 *****  WEATHER ACROSS EASTERN NORTH DAKOTA  *****

CITY           SKY/WX    TMP DP  RH WIND       PRES   REMARKS
GRAND FORKS    FAIR      30  26  85 N5        30.26S
6HR MIN TEMP:  29; 6HR MAX TEMP:  36;

GRAND FORKS AF FAIR      29  25  85 N5        30.26S WCI  23
GRAND CITY NWS NOT AVBL
BUXTON         NOT AVBL
DEVILS LAKE    FAIR      30  27  88 CALM      30.26R
6HR MIN TEMP:  28; 6HR MAX TEMP:  37;

FARGO          FAIR      27  24  89 CALM      30.26R
6HR MIN TEMP:  24; 6HR MAX TEMP:  33;

WAHPETON ARPT  FAIR      30  27  86 NE3       30.25S
$$

 *****  WEATHER ACROSS CENTRAL AND WESTERN NORTH DAKOTA  *****

CITY           SKY/WX    TMP DP  RH WIND       PRES   REMARKS
JAMESTOWN      FAIR      28  26  92 CALM      30.24R
6HR MIN TEMP:  26; 6HR MAX TEMP:  34;

BISMARCK       FAIR      25  22  88 CALM      30.26R
6HR MIN TEMP:  23; 6HR MAX TEMP:  35;

MINOT          FAIR      42  18  37 SW9       30.21R
6HR MIN TEMP:  34; 6HR MAX TEMP:  43; 6HR PCP: TRACE;

MINOT AFB      FAIR      38  23  53 S7        30.20R
6HR MIN TEMP:  32; 6HR MAX TEMP:  39;

GARRISON         N/A     29  24  82 CALM      30.23R
6HR MIN TEMP:  26; 6HR MAX TEMP:  38;

WILLISTON      FAIR      28  23  81 CALM      30.21R
6HR MIN TEMP:  28; 6HR MAX TEMP:  43;

DICKINSON      FAIR      29  21  72 S10       30.22R WCI  20
6HR MIN TEMP:  26; 6HR MAX TEMP:  32;

HETTINGER      FAIR      26  21  81 CALM      30.25R
6HR MIN TEMP:  21; 6HR MAX TEMP:  31;

$$

 *****  OTHER OBSERVATIONS NORTHEAST NORTH DAKOTA  *****

CITY           SKY/WX    TMP DP  RH WIND       PRES   REMARKS
WALHALLA       NOT AVBL
LANGDON        FAIR      23  21  93 CALM      30.25S
CAVALIER       FAIR      27  23  86 CALM      30.27S
GRAFTON        FAIR      30  25  80 CALM      30.29S
CANDO          NOT AVBL
FORT TOTTEN      N/A     35  15  44 SE5       29.95S
ROLLA          FAIR      32  21  64 SW8       30.24R WCI  25
RUGBY          NOT AVBL
 ***** THE ABOVE OBSERVATIONS ARE NON NWS ARE NOT QUALITY
        CONTROLLED AND MAY MIS-REPORT RAIN FOR SNOW...
$$

 *****  OTHER OBSERVATIONS SOUTHEAST NORTH DAKOTA *****

CITY           SKY/WX    TMP DP  RH WIND       PRES   REMARKS
COOPERSTOWN    FAIR      28  27  93 CALM      30.27R
VALLEY CITY    FAIR      27  25  93 NW7       30.26R WCI  19
OAKES          NOT AVBL
GWINNER        SUNNY     34  23  64 MISG      30.23S
SHEYENNE NWR     N/A     24  21  87 CALM      29.95S
BUFFALO        NOT AVBL
WYNDMERE         N/A     27  25  93 CALM        N/A
 ***** THE ABOVE OBSERVATIONS ARE NON NWS ARE NOT QUALITY
       CONTROLLED AND MAY MIS-REPORT RAIN FOR SNOW...
$$

  *****  WEATHER ACROSS NORTHERN MINNESOTA  *****

CITY           SKY/WX    TMP DP  RH WIND       PRES   REMARKS
FLAG ISLAND    FAIR      34  25  69 CALM      30.26R
WARROAD        FAIR      27  21  80 CALM      30.27R
ROSEAU         FAIR      27  21  80 CALM      30.26S
HALLOCK        FAIR      27  23  86 CALM      30.28R
THF RVR FALLS  FAIR      29  21  72 NW3       30.27R
6HR MIN TEMP:  25; 6HR MAX TEMP:  37;

HALSTAD          N/A     28  25  89 N3          N/A
FOSSTON        FAIR      21  18  86 CALM      30.25S
BAUDETTE       FAIR      27  22  81 CALM      30.25R
6HR MIN TEMP:  23; 6HR MAX TEMP:  31;

WASKISH        FAIR      27  25  93 CALM      30.25R
CROOKSTON      FAIR      30  27  86 CALM      30.26F
$$
  *****  WEATHER ACROSS CENTRAL AND WEST MINNESOTA  *****

CITY           SKY/WX    TMP DP  RH WIND       PRES   REMARKS
BEMIDJI        FAIR      21  19  93 CALM      30.24S
PARK RAPIDS    FAIR      28  20  71 N3        30.25R
6HR MIN TEMP:  22; 6HR MAX TEMP:  32;

WADENA         FAIR      25  21  86 CALM      30.26R
DETROIT LAKES  FAIR      30  28  93 CALM      30.26R
MOORHEAD       FAIR      28  25  86 CALM      30.27R
FERGUS FALLS   FAIR      34  23  64 E5        30.25S
ELBOW LAKE     FAIR      33  28  83 CALM      30.26R
6HR MIN TEMP:  31; 6HR MAX TEMP:  38;

MORRIS MN      FAIR      28  25  86 NE3       30.24R
STAPLES        FAIR      25  21  86 CALM      30.26R
WHEATON        FAIR      30  25  80 CALM      30.27S
$$
  *****  WEATHER ELSEWHERE ACROSS MINNESOTA  *****

CITY           SKY/WX    TMP DP  RH WIND       PRES   REMARKS
DULUTH         FAIR      33  26  75 N5        30.25R
6HR MIN TEMP:  25; 6HR MAX TEMP:  33;

INTRNTL FALLS  FAIR      26  23  88 NE5       30.24S WCI  20
6HR MIN TEMP:  20; 6HR MAX TEMP:  26;

ELY            FAIR      25  21  86 CALM      30.23R
CLOQUET        FAIR      28  25  86 N6        30.26R WCI  22
BRAINERD       FAIR      28  27  96 CALM      30.27R
6HR MIN TEMP:  23; 6HR MAX TEMP:  34;

HIBBING        FAIR      23  22  96 CALM      30.26R
6HR MIN TEMP:  19; 6HR MAX TEMP:  24;

ALEXANDRIA     FAIR      32  23  69 E5        30.24R
6HR MIN TEMP:  28; 6HR MAX TEMP:  39;

SAINT CLOUD    FAIR      30  26  85 N3        30.26R
6HR MIN TEMP:  28; 6HR MAX TEMP:  40;

MINNEAPOLIS    MOCLDY    39  26  59 E12       30.27R
6HR MIN TEMP:  38; 6HR MAX TEMP:  44;

$$

  *****  WEATHER ACROSS SOUTH DAKOTA  *****

CITY           SKY/WX    TMP DP  RH WIND       PRES   REMARKS
SIOUX FALLS    MOCLDY    36  27  69 NE7       30.20R
6HR MIN TEMP:  33; 6HR MAX TEMP:  38;

BROOKINGS      FAIR      33  22  63 NE7       30.22R
WATERTOWN      FAIR      25  20  81 CALM      30.22R
6HR MIN TEMP:  21; 6HR MAX TEMP:  33;

HURON          FAIR      24  21  88 CALM      30.25R
6HR MIN TEMP:  22; 6HR MAX TEMP:  30;

SISSETON         N/A     27  23  85 N5        30.24R WCI  22
ABERDEEN       FAIR      25  19  78 N5        30.24R WCI  19
6HR MIN TEMP:  24; 6HR MAX TEMP:  36;

MITCHELL       FAIR      31  24  75 NW6       30.23R
PIERRE         FAIR      32  21  64 CALM      30.24R
6HR MIN TEMP:  27; 6HR MAX TEMP:  39;

MOBRIDGE       FAIR      30  23  75 N5        30.21R
RAPID CITY     FAIR      27  21  78 NW8       30.21F WCI  19
6HR MIN TEMP:  26; 6HR MAX TEMP:  36;

$$

  *****  SOME WEATHER IN NEARBY STATES *****

CITY           SKY/WX    TMP DP  RH WIND       PRES   REMARKS
GLASGOW MT     FAIR      31  29  92 SE5       30.21R
6HR MIN TEMP:  31; 6HR MAX TEMP:  43;

GREAT FALLS MT FAIR      33  29  85 S12       30.17R WCI  24
6HR MIN TEMP:  30; 6HR MAX TEMP:  35;

CHEYENNE WY    CLOUDY    26  24  92 N10       30.12R WCI  16
6HR MIN TEMP:  26; 6HR MAX TEMP:  27; 6HR PCP:  0.02;

SCOTTSBLUFF NE CLOUDY    32  27  81 N8        30.17R WCI  25
6HR MIN TEMP:  32; 6HR MAX TEMP:  34;

OMAHA NE       LGT RAIN  43  34  70 N9        30.12R
6HR MIN TEMP:  43; 6HR MAX TEMP:  44; 6HR PCP: TRACE;

DES MOINES IA  CLOUDY    45  35  68 NE16G24   30.09R
6HR MIN TEMP:  44; 6HR MAX TEMP:  46;

DAVENPORT IA   CLOUDY    46  41  82 NE14      30.08F
6HR MIN TEMP:  44; 6HR MAX TEMP:  46;

CHICAGO IL     CLOUDY    46  35  65 NE12G23   30.16R
6HR MIN TEMP:  45; 6HR MAX TEMP:  46;

EAU CLAIRE WI  FAIR      35  27  72 NE5       30.29R
6HR MIN TEMP:  31; 6HR MAX TEMP:  37;

LA CROSSE WI   FAIR      40  28  62 NE12G20   30.23F
6HR MIN TEMP:  37; 6HR MAX TEMP:  44;

$$

  *****  SOME NATIONAL WEATHER *****

CITY           SKY/WX    TMP DP  RH WIND       PRES   REMARKS
LA GUARDIA NY  PTSUNNY   67  63  87 E5        29.97S



USA.gov is the U.S. government's official web portal to all federal, state and local government web resources and services.